Location: *
(34.8620°S, 39.3380°E)
Time: 00:54:52
(UTC+00:00)

SKYSAT 2 - Pass Details

Date: 05 December 2023
Orbit: 613 x 623 km, 98.3° (Epoch: 26 February)

Event Time Altitude Azimuth Distance (km) Brightness Sun altitude
Exits shadow 20:20:37 30° 227° (SW) 1,153 ? -31.4°
Drops below altitude 10° 20:23:06 10° 206° (SSW) 2,027 ? -31.5°
Sets 20:25:24 0° 200° (SSW) 2,941 ? -31.6°
